When you browse on this site, cookies collect data to enhance your experience and personalize the content and advertising you see.
Visit our Privacy Policy to learn more. By continuing to use the site, you agree to this use of cookies and data.
  • în România
  • Lista ţărilor
  • Pe 7 zile
  • Temperatura apei
  • Meteo pe hartă
  • Widget-uri
  • user-avatar
    Intrare

    Meteo pe oră la Newcastle

    Astăzi, 18 Februarie, Marţi

    Timp Temperatura Precipitaţii Vânt Presiune Umiditate
    00:00 +22°C° 0 mm 1 m/s 758 mmHg 97%
    01:00 +22°C° 0 mm 1 m/s 757 mmHg 97%
    02:00 +22°C° 0 mm 1 m/s 757 mmHg 97%
    03:00 +22°C° 0 mm 1 m/s 757 mmHg 97%
    04:00 +22°C° 0 mm 1 m/s 756 mmHg 98%
    05:00 +22°C° 0 mm 1 m/s 757 mmHg 96%
    06:00 +23°C° 0 mm 1 m/s 757 mmHg 94%
    07:00 +24°C° 0 mm 2 m/s 757 mmHg 92%
    08:00 +26°C° 0 mm 2 m/s 757 mmHg 81%
    09:00 +28°C° 0 mm 2 m/s 756 mmHg 70%
    10:00 +31°C° 0 mm 2 m/s 756 mmHg 60%
    11:00 +33°C° 0 mm 3 m/s 755 mmHg 57%
    12:00 +34°C° 0 mm 3 m/s 755 mmHg 55%
    13:00 +35°C° 0 mm 4 m/s 754 mmHg 53%
    14:00 +35°C° 0.3 mm 4 m/s 754 mmHg 54%
    15:00 +35°C° 0.3 mm 5 m/s 753 mmHg 55%
    16:00 +34°C° 0.3 mm 5 m/s 752 mmHg 57%
    17:00 +33°C° 0.2 mm 5 m/s 752 mmHg 64%
    18:00 +30°C° 0.2 mm 5 m/s 752 mmHg 72%
    19:00 +28°C° 0.2 mm 5 m/s 752 mmHg 80%
    20:00 +27°C° 0.4 mm 4 m/s 752 mmHg 83%
    21:00 +26°C° 0.4 mm 3 m/s 752 mmHg 87%
    22:00 +26°C° 0.4 mm 3 m/s 752 mmHg 90%
    23:00 +25°C° 0 mm 3 m/s 752 mmHg 88%

    Mâine, 19 Februarie, Miercuri

    Timp Temperatura Precipitaţii Vânt Presiune Umiditate
    00:00 +25°C° 0 mm 4 m/s 752 mmHg 87%
    01:00 +23°C° 0 mm 5 m/s 751 mmHg 85%
    02:00 +23°C° 0 mm 5 m/s 751 mmHg 80%
    03:00 +24°C° 0 mm 6 m/s 751 mmHg 76%
    04:00 +24°C° 0 mm 6 m/s 751 mmHg 72%
    05:00 +24°C° 0 mm 6 m/s 751 mmHg 73%
    06:00 +24°C° 0 mm 6 m/s 752 mmHg 74%
    07:00 +25°C° 0 mm 5 m/s 752 mmHg 75%
    08:00 +27°C° 0 mm 5 m/s 752 mmHg 67%
    09:00 +28°C° 0 mm 4 m/s 753 mmHg 58%
    10:00 +30°C° 0 mm 3 m/s 753 mmHg 50%
    11:00 +32°C° 0 mm 4 m/s 752 mmHg 45%
    12:00 +32°C° 0 mm 4 m/s 752 mmHg 39%
    13:00 +33°C° 0 mm 4 m/s 752 mmHg 34%
    14:00 +32°C° 0 mm 4 m/s 752 mmHg 36%
    15:00 +32°C° 0 mm 4 m/s 752 mmHg 38%
    16:00 +30°C° 0 mm 4 m/s 752 mmHg 40%
    17:00 +28°C° 0 mm 3 m/s 752 mmHg 51%
    18:00 +25°C° 0 mm 3 m/s 753 mmHg 62%
    19:00 +22°C° 0 mm 3 m/s 754 mmHg 72%
    20:00 +21°C° 0 mm 3 m/s 754 mmHg 76%
    21:00 +21°C° 0 mm 4 m/s 755 mmHg 80%
    22:00 +21°C° 0 mm 5 m/s 756 mmHg 84%
    23:00 +20°C° 0.2 mm 4 m/s 756 mmHg 87%

    Poimâine, 20 Februarie, Joi

    Timp Temperatura Precipitaţii Vânt Presiune Umiditate
    00:00 +20°C° 0.2 mm 4 m/s 756 mmHg 90%
    01:00 +20°C° 0.2 mm 4 m/s 756 mmHg 93%
    02:00 +19°C° 0.1 mm 4 m/s 756 mmHg 92%
    03:00 +19°C° 0.1 mm 4 m/s 756 mmHg 92%
    04:00 +19°C° 0.1 mm 4 m/s 756 mmHg 91%
    05:00 +19°C° 0.1 mm 4 m/s 756 mmHg 91%
    06:00 +19°C° 0.1 mm 4 m/s 757 mmHg 90%
    07:00 +19°C° 0.1 mm 4 m/s 757 mmHg 89%
    08:00 +20°C° 0 mm 4 m/s 758 mmHg 84%
    09:00 +21°C° 0 mm 4 m/s 758 mmHg 79%
    10:00 +21°C° 0 mm 4 m/s 758 mmHg 73%
    11:00 +22°C° 0 mm 4 m/s 758 mmHg 70%
    12:00 +24°C° 0 mm 3 m/s 758 mmHg 67%
    13:00 +24°C° 0 mm 3 m/s 757 mmHg 64%
    14:00 +24°C° 0 mm 3 m/s 757 mmHg 63%
    15:00 +25°C° 0 mm 3 m/s 757 mmHg 63%
    16:00 +25°C° 0 mm 3 m/s 757 mmHg 62%
    17:00 +22°C° 0 mm 3 m/s 757 mmHg 68%
    18:00 +21°C° 0 mm 3 m/s 758 mmHg 74%
    19:00 +20°C° 0 mm 2 m/s 758 mmHg 80%
    20:00 +19°C° 0 mm 2 m/s 759 mmHg 82%
    21:00 +19°C° 0 mm 2 m/s 759 mmHg 83%
    22:00 +19°C° 0 mm 2 m/s 759 mmHg 85%
    23:00 +19°C° 0 mm 2 m/s 759 mmHg 84%

    21 Februarie, Vineri

    Timp Temperatura Precipitaţii Vânt Presiune Umiditate
    00:00 +19°C° 0 mm 2 m/s 759 mmHg 84%
    01:00 +19°C° 0 mm 2 m/s 759 mmHg 83%
    02:00 +20°C° 0 mm 2 m/s 759 mmHg 83%
    03:00 +20°C° 0 mm 2 m/s 758 mmHg 82%
    04:00 +20°C° 0 mm 2 m/s 758 mmHg 82%
    05:00 +21°C° 0.1 mm 2 m/s 759 mmHg 82%
    06:00 +21°C° 0.1 mm 2 m/s 759 mmHg 83%
    07:00 +21°C° 0.1 mm 2 m/s 760 mmHg 83%
    08:00 +23°C° 0.2 mm 2 m/s 760 mmHg 80%
    09:00 +24°C° 0.2 mm 3 m/s 760 mmHg 77%
    10:00 +25°C° 0.2 mm 3 m/s 760 mmHg 74%
    11:00 +25°C° 0.5 mm 3 m/s 760 mmHg 76%
    12:00 +25°C° 0.5 mm 4 m/s 760 mmHg 79%
    13:00 +25°C° 0.5 mm 4 m/s 759 mmHg 81%
    14:00 +25°C° 0.3 mm 4 m/s 759 mmHg 79%
    15:00 +25°C° 0.3 mm 5 m/s 759 mmHg 77%
    16:00 +25°C° 0.3 mm 5 m/s 759 mmHg 74%
    23:00 +20°C° 1.3 mm 4 m/s 761 mmHg 92%

    22 Februarie, Sâmbătă

    Timp Temperatura Precipitaţii Vânt Presiune Umiditate
    00:00 +19°C° 1.1 mm 3 m/s 762 mmHg 93%
    01:00 +19°C° 1.1 mm 3 m/s 762 mmHg 95%
    02:00 +19°C° 0.7 mm 3 m/s 763 mmHg 95%
    03:00 +19°C° 0.7 mm 3 m/s 763 mmHg 95%
    04:00 +19°C° 0.7 mm 3 m/s 763 mmHg 95%
    05:00 +19°C° 0.7 mm 3 m/s 763 mmHg 94%
    06:00 +20°C° 0.7 mm 2 m/s 764 mmHg 92%
    07:00 +20°C° 0.7 mm 2 m/s 764 mmHg 91%
    08:00 +22°C° 0.4 mm 3 m/s 764 mmHg 86%
    09:00 +24°C° 0.4 mm 3 m/s 765 mmHg 82%
    10:00 +25°C° 0.4 mm 4 m/s 765 mmHg 77%
    11:00 +25°C° 0.4 mm 4 m/s 764 mmHg 75%
    12:00 +26°C° 0.4 mm 5 m/s 764 mmHg 74%
    13:00 +26°C° 0.4 mm 5 m/s 764 mmHg 72%
    14:00 +26°C° 0.1 mm 5 m/s 764 mmHg 71%
    15:00 +26°C° 0.1 mm 5 m/s 764 mmHg 69%
    16:00 +26°C° 0.1 mm 5 m/s 764 mmHg 67%
    17:00 +25°C° 0 mm 5 m/s 764 mmHg 72%
    18:00 +23°C° 0 mm 4 m/s 765 mmHg 77%
    19:00 +22°C° 0 mm 4 m/s 765 mmHg 81%
    20:00 +21°C° 0 mm 4 m/s 765 mmHg 85%
    21:00 +20°C° 0 mm 4 m/s 766 mmHg 88%
    22:00 +20°C° 0 mm 4 m/s 766 mmHg 92%
    23:00 +19°C° 0.1 mm 4 m/s 766 mmHg 93%

    23 Februarie, Duminică

    Timp Temperatura Precipitaţii Vânt Presiune Umiditate
    00:00 +19°C° 0.1 mm 3 m/s 766 mmHg 93%
    01:00 +19°C° 0.1 mm 3 m/s 766 mmHg 94%
    02:00 +19°C° 0.1 mm 3 m/s 766 mmHg 94%
    03:00 +19°C° 0.1 mm 2 m/s 766 mmHg 94%
    04:00 +18°C° 0.1 mm 2 m/s 766 mmHg 94%
    05:00 +19°C° 0.1 mm 2 m/s 766 mmHg 90%
    06:00 +20°C° 0.1 mm 2 m/s 767 mmHg 87%
    07:00 +21°C° 0.1 mm 2 m/s 767 mmHg 84%
    08:00 +24°C° 0.1 mm 2 m/s 767 mmHg 76%
    09:00 +26°C° 0.1 mm 3 m/s 768 mmHg 69%
    10:00 +28°C° 0.1 mm 3 m/s 768 mmHg 61%
    11:00 +27°C° 0.6 mm 4 m/s 767 mmHg 67%
    12:00 +27°C° 0.6 mm 5 m/s 767 mmHg 74%
    13:00 +26°C° 0.6 mm 6 m/s 767 mmHg 80%
    14:00 +26°C° 0.3 mm 6 m/s 767 mmHg 77%
    15:00 +27°C° 0.3 mm 6 m/s 766 mmHg 73%
    16:00 +27°C° 0.3 mm 6 m/s 766 mmHg 69%
    17:00 +24°C° 0 mm 6 m/s 766 mmHg 73%
    18:00 +23°C° 0 mm 5 m/s 767 mmHg 77%
    19:00 +21°C° 0 mm 5 m/s 767 mmHg 81%
    20:00 +21°C° 0 mm 5 m/s 767 mmHg 84%
    21:00 +20°C° 0 mm 4 m/s 768 mmHg 87%
    22:00 +19°C° 0 mm 4 m/s 768 mmHg 91%
    23:00 +19°C° 0 mm 3 m/s 768 mmHg 92%
    Arată mai mult